Location: Jackson Park
(37.2862°N, 79.9123°W)
Time: 21:37:06
(UTC+00:00)

Transit 4A - Pass Details

Date: 14 May 2026
Orbit: 860 x 980 km, 66.8° (Epoch: 9 June)

Event Time Altitude Azimuth Distance (km) Brightness Sun altitude
Rises 22:45:22 0° 330° (NNW) 3,687 11.6 17.2°
Reaches altitude 10° 22:47:57 10° 329° (NNW) 2,737 11.1 16.7°
Maximum altitude 22:54:21 74° 245° (WSW) 1,015 8.6 15.5°
Drops below altitude 10° 23:00:37 10° 162° (SSE) 2,686 10.1 14.2°
Sets 23:03:08 0° 160° (SSE) 3,615 10.7 13.8°
